Location: Unspecified
(47.4992°N, 121.7766°W)
Time: 15:32:09
(UTC-07:00)

ISS - Pass Details

Date: 25 April 2024
Orbit: 410 x 414 km, 51.6° (Epoch: 18 May)

Event Time Altitude Azimuth Distance (km) Brightness Sun altitude
Exits shadow 04:57:24 16° 236° (SW) 1,185 -2.1 -10.1°
Maximum altitude 04:59:59 73° 152° (SSE) 432 -3.7 -9.8°
Drops below altitude 10° 05:03:18 10° 68° (ENE) 1,479 0.6 -9.3°
Sets 05:05:23 0° 66° (ENE) 2,342 2.2 -9.0°
